TimeAKST,TemperatureF,Dew PointF,Humidity,Sea Level PressureIn,VisibilityMPH,Wind Direction,Wind SpeedMPH,Gust SpeedMPH,PrecipitationIn,Events,Conditions,WindDirDegrees,DateUTC
12:00 AM,26.6,23.0,86,29.60,8.0,NW,13.8,-,0.00,,Overcast,320,2012-12-10 09:00:00
12:27 AM,26.6,23.0,86,29.62,3.0,NW,16.1,-,0.00,Snow,Light Snow,310,2012-12-10 09:27:00
12:53 AM,28.0,23.0,81,29.65,10.0,NW,13.8,24.2,0.00,,Overcast,310,2012-12-10 09:53:00
1:27 AM,26.6,21.2,80,29.67,9.0,NW,17.3,-,0.00,Snow,Light Snow,310,2012-12-10 10:27:00
1:35 AM,26.6,21.2,80,29.67,9.0,NW,16.1,-,0.00,Snow,Light Snow,310,2012-12-10 10:35:00
1:53 AM,28.0,19.0,69,29.68,9.0,NW,17.3,-,0.00,Snow,Light Snow,320,2012-12-10 10:53:00
3:53 AM,28.0,21.0,75,29.76,10.0,NW,12.7,-,N/A,,Overcast,320,2012-12-10 12:53:00
4:53 AM,28.0,21.0,75,29.81,10.0,NW,17.3,-,0.00,,Overcast,310,2012-12-10 13:53:00
5:53 AM,28.0,19.9,72,29.84,10.0,NW,20.7,24.2,0.00,Snow,Light Snow,310,2012-12-10 14:53:00
6:53 AM,28.0,21.0,75,29.87,10.0,NW,20.7,-,0.00,,Overcast,310,2012-12-10 15:53:00
7:53 AM,28.0,19.9,72,29.91,10.0,NW,19.6,-,N/A,,Overcast,310,2012-12-10 16:53:00
8:53 AM,28.0,21.0,75,29.95,10.0,NW,11.5,-,N/A,,Overcast,310,2012-12-10 17:53:00
9:53 AM,28.0,21.0,75,29.97,10.0,WNW,6.9,-,N/A,,Overcast,290,2012-12-10 18:53:00
10:00 AM,28.4,21.2,74,29.97,10.0,West,9.2,-,N/A,,Overcast,280,2012-12-10 19:00:00
10:53 AM,28.0,21.9,78,29.99,10.0,NNW,9.2,-,0.00,Snow,Light Snow,330,2012-12-10 19:53:00
11:53 AM,28.0,21.0,75,30.02,10.0,NNW,8.1,-,0.00,,Overcast,340,2012-12-10 20:53:00
12:53 PM,26.1,19.9,78,30.04,10.0,WNW,3.5,-,0.00,Snow,Light Snow,290,2012-12-10 21:53:00
1:53 PM,27.0,21.0,78,30.05,10.0,North,3.5,-,0.00,,Overcast,360,2012-12-10 22:53:00
2:53 PM,28.0,21.0,75,30.04,10.0,East,4.6,-,N/A,,Overcast,80,2012-12-10 23:53:00
3:53 PM,28.9,21.0,72,30.05,10.0,East,6.9,-,N/A,,Overcast,100,2012-12-11 00:53:00
4:53 PM,30.0,21.9,72,30.04,10.0,ESE,9.2,-,N/A,,Overcast,120,2012-12-11 01:53:00
5:53 PM,30.9,23.0,72,29.99,10.0,East,13.8,-,N/A,,Scattered Clouds,100,2012-12-11 02:53:00
6:17 PM,30.2,24.8,80,29.95,10.0,ESE,17.3,-,N/A,,Overcast,110,2012-12-11 03:17:00
6:50 PM,30.2,26.6,86,29.93,10.0,East,20.7,-,N/A,,Mostly Cloudy,100,2012-12-11 03:50:00
6:53 PM,32.0,26.1,79,29.93,10.0,ESE,19.6,-,N/A,,Mostly Cloudy,120,2012-12-11 03:53:00
7:53 PM,33.1,27.0,78,29.88,10.0,ESE,24.2,32.2,N/A,,Mostly Cloudy,120,2012-12-11 04:53:00
8:53 PM,33.1,27.0,78,29.83,4.0,SE,27.6,36.8,0.00,Snow,Light Snow,130,2012-12-11 05:53:00
9:22 PM,33.8,28.4,81,29.79,1.8,SE,26.5,35.7,0.00,Snow,Light Snow,130,2012-12-11 06:22:00
9:32 PM,32.0,28.4,87,29.79,0.8,SE,31.1,38.0,0.00,Snow,Light Snow,130,2012-12-11 06:32:00
9:53 PM,32.0,28.9,88,29.76,1.0,ESE,28.8,38.0,0.01,Snow,Light Snow,120,2012-12-11 06:53:00
10:07 PM,32.0,30.2,93,29.73,1.2,ESE,29.9,36.8,0.00,Snow,Light Snow,120,2012-12-11 07:07:00
10:15 PM,32.0,30.2,93,29.73,1.0,SE,27.6,40.3,0.01,Snow,Light Snow,130,2012-12-11 07:15:00
10:53 PM,33.1,30.9,92,29.70,3.0,SE,31.1,38.0,0.02,Snow,Light Snow,130,2012-12-11 07:53:00
11:18 PM,33.8,30.2,87,29.69,1.8,SE,29.9,41.4,0.00,Snow,Light Snow,130,2012-12-11 08:18:00
11:34 PM,33.8,32.0,93,29.69,3.0,SE,26.5,40.3,0.01,Snow,Light Snow,130,2012-12-11 08:34:00
11:53 PM,34.0,32.0,92,29.68,3.0,SE,28.8,38.0,0.01,Snow,Light Snow,130,2012-12-11 08:53:00